THORAD AGENA D DEB, 19667

Orbit data source: Space-Track

THORAD AGENA D DEB, 19667 is space debris in SSO originally from a launch on Wed, 08 Apr 1970 UTC launched from the Air Force Western Test Range (AFWTR). Debris objects in space refer to the collection of defunct objects orbiting the Earth. Examples of debris include non-operational satellites, rocket bodies, and fragments generated from explosions, collisions, or faulty payload assembly.

Loading next visibility...
Identifier
19667, 1970-025QC
Orbit
SSO
Country
Flag of USUS
Related business
Manufacturer
Unknown
Mission
Spacecraft
Bus & Motor
Unknown
Mass
Unknown
Launch date (UTC)
1970-04-08 (56 years ago)
Launch vehicle
Unknown
Launch site
Air Force Western Test Range (AFWTR)
Object type
Payload
Rocket body
Debris
Shape & HBR
Unknown shape, 0.1 m
Radar Cross Section
Small (<0.1 m²)

Expand to show TLE details & history
Last TLE update: 14 hours ago

TLE from 14 hours ago
0 THORAD AGENA D DEB
1 19667U 70025QC  26095.22193656  .00000336  00000-0  11801-2 0  9994
2 19667  99.7484  11.0199 0337949 294.1498 225.8338 12.86208529772476
Epoch: 2026-04-05T05:19Z
TLE epoch observation values (Epoch: 2026-04-05T05:19:35.318Z)
Latitude
22.38215°
Longitude
-78.37045°
Altitude
1,504.718 km
Speed
7.028 km/s
True Right ascension
13h 00m 13s
True Declination
22° 16' 22"
Sunlit
Object was in full shadow at epoch
Visualization orbit readout
Latitude
Unknown
Longitude
Unknown
Altitude
Unknown
Speed
Unknown
Apparent Right ascension
Unknown
Apparent Declination
Unknown
Sunlit
N/A
Visualization observer readout
Local Sidereal Time
01:03:42
Azimuth
Unknown
Elevation
Unknown
Doppler factor
Unknown
Orbital elements
Apogee altitude
1,573.948 km
Perigee altitude
1,054.039 km
Semi-major axis
7,692.131 km
Eccentricity
0.03379
Inclination
99.7484°
RAAN
11.0199°
Arg. of periapsis
294.1498°
True anomaly
223.1364°
Mean anomaly
225.8338°
Eccentric anomaly
224.47718°
Mean motion
3.21716 °/min
Orbital period
111.9 mins
BSTAR
0.0011801
Loading maneuver chart data...
Computing Atmospheric mass density...

Documentation

Showing up to 5 results
|